• In Netherlands
  • List of Countries
  • For 7 days
  • Water Temperature
  • Satellite Maps
  • Weather Map
  • Weather Widgets
  • user-avatar
    Login

    Hourly Weather Balchik

    Today, 18 August, Friday

    Time Temperature Precipitation Wind Pressure Humidity
    00:00 +22°C° 0 mm 3 mps 738 mmHg 42%
    01:00 +22°C° 0 mm 3 mps 738 mmHg 41%
    02:00 +22°C° 0 mm 4 mps 738 mmHg 41%
    03:00 +21°C° 0 mm 4 mps 738 mmHg 43%
    04:00 +21°C° 0 mm 4 mps 738 mmHg 46%
    05:00 +20°C° 0 mm 4 mps 738 mmHg 48%
    06:00 +22°C° 0 mm 4 mps 739 mmHg 46%
    07:00 +25°C° 0 mm 4 mps 739 mmHg 43%
    08:00 +26°C° 0 mm 4 mps 739 mmHg 41%
    09:00 +29°C° 0 mm 5 mps 739 mmHg 35%
    10:00 +32°C° 0 mm 5 mps 739 mmHg 30%
    11:00 +34°C° 0 mm 6 mps 740 mmHg 25%
    12:00 +34°C° 0 mm 6 mps 739 mmHg 24%
    13:00 +35°C° 0 mm 6 mps 739 mmHg 24%
    14:00 +35°C° 0 mm 6 mps 739 mmHg 23%
    15:00 +34°C° 0 mm 6 mps 739 mmHg 26%
    16:00 +33°C° 0 mm 6 mps 739 mmHg 29%
    17:00 +33°C° 0 mm 6 mps 739 mmHg 31%
    18:00 +29°C° 0 mm 5 mps 739 mmHg 42%
    19:00 +27°C° 0 mm 4 mps 739 mmHg 53%
    20:00 +24°C° 0 mm 3 mps 739 mmHg 64%
    21:00 +22°C° 0 mm 3 mps 739 mmHg 66%
    22:00 +21°C° 0 mm 3 mps 739 mmHg 68%
    23:00 +21°C° 0 mm 2 mps 739 mmHg 69%

    Tomorrow, 19 August, Saturday

    Time Temperature Precipitation Wind Pressure Humidity
    00:00 +21°C° 0 mm 2 mps 739 mmHg 65%
    01:00 +20°C° 0 mm 2 mps 739 mmHg 61%
    02:00 +20°C° 0 mm 3 mps 739 mmHg 57%
    03:00 +20°C° 0 mm 3 mps 738 mmHg 58%
    04:00 +20°C° 0 mm 4 mps 738 mmHg 58%
    05:00 +19°C° 0 mm 4 mps 738 mmHg 59%
    06:00 +21°C° 0 mm 4 mps 738 mmHg 54%
    07:00 +23°C° 0 mm 5 mps 738 mmHg 49%
    08:00 +26°C° 0 mm 5 mps 739 mmHg 45%
    09:00 +28°C° 0 mm 5 mps 739 mmHg 38%
    10:00 +30°C° 0 mm 5 mps 739 mmHg 32%
    11:00 +33°C° 0 mm 5 mps 739 mmHg 26%
    12:00 +34°C° 0 mm 5 mps 738 mmHg 26%
    13:00 +34°C° 0 mm 6 mps 738 mmHg 25%
    14:00 +35°C° 0 mm 6 mps 738 mmHg 25%
    15:00 +34°C° 0 mm 6 mps 738 mmHg 28%
    16:00 +33°C° 0 mm 6 mps 737 mmHg 32%
    17:00 +33°C° 0 mm 5 mps 737 mmHg 35%
    18:00 +29°C° 0 mm 5 mps 737 mmHg 44%
    19:00 +27°C° 0 mm 4 mps 737 mmHg 53%
    20:00 +25°C° 0 mm 3 mps 738 mmHg 62%
    21:00 +24°C° 0 mm 2 mps 738 mmHg 65%
    22:00 +23°C° 0 mm 2 mps 738 mmHg 68%
    23:00 +23°C° 0 mm 2 mps 738 mmHg 70%

    Day after tomorrow, 20 August, Sunday

    Time Temperature Precipitation Wind Pressure Humidity
    00:00 +21°C° 0 mm 2 mps 738 mmHg 70%
    01:00 +21°C° 0 mm 2 mps 738 mmHg 70%
    02:00 +21°C° 0 mm 2 mps 737 mmHg 70%
    03:00 +20°C° 0 mm 2 mps 737 mmHg 70%
    04:00 +20°C° 0 mm 3 mps 737 mmHg 69%
    05:00 +20°C° 0 mm 3 mps 737 mmHg 69%
    06:00 +21°C° 0 mm 3 mps 737 mmHg 62%
    07:00 +24°C° 0 mm 3 mps 738 mmHg 55%
    08:00 +26°C° 0 mm 3 mps 738 mmHg 47%
    09:00 +28°C° 0 mm 3 mps 738 mmHg 42%
    10:00 +30°C° 0 mm 4 mps 738 mmHg 37%
    11:00 +33°C° 0 mm 4 mps 738 mmHg 32%
    12:00 +34°C° 0 mm 4 mps 738 mmHg 31%
    13:00 +34°C° 0 mm 4 mps 738 mmHg 30%
    14:00 +35°C° 0 mm 4 mps 737 mmHg 29%
    15:00 +34°C° 0 mm 4 mps 737 mmHg 31%
    16:00 +34°C° 0 mm 4 mps 737 mmHg 33%
    17:00 +33°C° 0 mm 4 mps 736 mmHg 36%
    18:00 +30°C° 0 mm 3 mps 736 mmHg 47%
    19:00 +27°C° 0 mm 2 mps 736 mmHg 58%
    20:00 +25°C° 0 mm 2 mps 736 mmHg 69%
    21:00 +24°C° 0 mm 2 mps 736 mmHg 73%
    22:00 +23°C° 0 mm 1 mps 736 mmHg 77%
    23:00 +22°C° 0 mm 1 mps 736 mmHg 81%

    21 August, Monday

    Time Temperature Precipitation Wind Pressure Humidity
    00:00 +22°C° 0 mm 1 mps 736 mmHg 79%
    01:00 +22°C° 0 mm 1 mps 736 mmHg 78%
    02:00 +21°C° 0 mm 2 mps 736 mmHg 77%
    03:00 +21°C° 0 mm 2 mps 736 mmHg 77%
    04:00 +20°C° 0 mm 3 mps 736 mmHg 78%
    05:00 +20°C° 0 mm 3 mps 736 mmHg 78%
    06:00 +21°C° 0 mm 4 mps 736 mmHg 73%
    07:00 +22°C° 0 mm 4 mps 737 mmHg 68%
    08:00 +23°C° 0 mm 5 mps 737 mmHg 64%
    09:00 +26°C° 0 mm 4 mps 737 mmHg 57%
    10:00 +28°C° 0 mm 4 mps 737 mmHg 51%
    11:00 +29°C° 0 mm 3 mps 737 mmHg 45%
    12:00 +30°C° 0.1 mm 3 mps 736 mmHg 43%
    13:00 +31°C° 0.1 mm 3 mps 736 mmHg 41%
    14:00 +31°C° 0.1 mm 3 mps 736 mmHg 38%
    15:00 +31°C° 0 mm 3 mps 736 mmHg 41%
    16:00 +30°C° 0 mm 3 mps 735 mmHg 44%
    17:00 +29°C° 0 mm 2 mps 735 mmHg 46%
    18:00 +27°C° 0.5 mm 4 mps 736 mmHg 53%
    19:00 +25°C° 0.5 mm 5 mps 736 mmHg 60%
    20:00 +22°C° 0.5 mm 6 mps 736 mmHg 66%
    21:00 +20°C° 0.8 mm 6 mps 736 mmHg 71%
    22:00 +17°C° 0.8 mm 6 mps 737 mmHg 76%
    23:00 +16°C° 0.8 mm 7 mps 737 mmHg 81%

    22 August, Tuesday

    Time Temperature Precipitation Wind Pressure Humidity
    00:00 +15°C° 0.5 mm 6 mps 737 mmHg 83%
    01:00 +15°C° 0.5 mm 6 mps 738 mmHg 84%
    02:00 +15°C° 0.5 mm 5 mps 738 mmHg 85%
    03:00 +14°C° 0 mm 5 mps 738 mmHg 83%
    04:00 +14°C° 0 mm 5 mps 738 mmHg 80%
    05:00 +14°C° 0 mm 5 mps 739 mmHg 78%
    06:00 +15°C° 0 mm 6 mps 739 mmHg 73%
    07:00 +16°C° 0 mm 6 mps 739 mmHg 67%
    08:00 +17°C° 0 mm 7 mps 740 mmHg 62%
    09:00 +20°C° 0 mm 7 mps 740 mmHg 55%
    10:00 +22°C° 0 mm 6 mps 740 mmHg 48%
    11:00 +24°C° 0 mm 6 mps 740 mmHg 42%
    12:00 +25°C° 0 mm 5 mps 740 mmHg 39%
    13:00 +26°C° 0 mm 5 mps 740 mmHg 37%
    14:00 +27°C° 0 mm 4 mps 739 mmHg 35%
    15:00 +27°C° 0 mm 4 mps 739 mmHg 35%
    16:00 +27°C° 0 mm 4 mps 739 mmHg 36%
    17:00 +26°C° 0 mm 3 mps 739 mmHg 37%
    18:00 +25°C° 0 mm 3 mps 739 mmHg 41%
    19:00 +23°C° 0 mm 2 mps 739 mmHg 45%
    20:00 +20°C° 0 mm 2 mps 739 mmHg 48%
    21:00 +20°C° 0 mm 2 mps 740 mmHg 50%
    22:00 +19°C° 0 mm 2 mps 740 mmHg 52%
    23:00 +20°C° 0 mm 1 mps 740 mmHg 54%

    23 August, Wednesday

    Time Temperature Precipitation Wind Pressure Humidity
    00:00 +19°C° 0 mm 1 mps 740 mmHg 55%
    01:00 +19°C° 0 mm 1 mps 740 mmHg 56%
    02:00 +18°C° 0 mm 1 mps 740 mmHg 56%
    03:00 +18°C° 0 mm 1 mps 740 mmHg 57%
    04:00 +18°C° 0 mm 1 mps 740 mmHg 57%
    05:00 +16°C° 0 mm 1 mps 741 mmHg 57%
    06:00 +19°C° 0 mm 1 mps 741 mmHg 52%
    07:00 +21°C° 0 mm 1 mps 741 mmHg 48%
    08:00 +23°C° 0 mm 1 mps 741 mmHg 43%
    09:00 +24°C° 0 mm 1 mps 742 mmHg 39%
    10:00 +26°C° 0 mm 1 mps 742 mmHg 36%
    11:00 +28°C° 0 mm 2 mps 742 mmHg 32%
    12:00 +28°C° 0 mm 2 mps 742 mmHg 30%
    13:00 +29°C° 0 mm 2 mps 741 mmHg 29%
    14:00 +30°C° 0 mm 3 mps 741 mmHg 27%
    15:00 +29°C° 0 mm 3 mps 741 mmHg 29%
    16:00 +29°C° 0 mm 3 mps 741 mmHg 31%
    17:00 +29°C° 0 mm 3 mps 741 mmHg 33%
    18:00 +26°C° 0 mm 3 mps 741 mmHg 42%
    19:00 +24°C° 0 mm 3 mps 741 mmHg 51%
    20:00 +21°C° 0 mm 3 mps 741 mmHg 60%
    21:00 +20°C° 0 mm 3 mps 741 mmHg 64%
    22:00 +20°C° 0 mm 3 mps 741 mmHg 69%
    23:00 +19°C° 0 mm 3 mps 741 mmHg 73%
    Show more